REU633 FIMP-FMEE

Flight info

Callsign REU633
Flight time 0h 17m
Altitude 22000
Route SOBAT1 SOBAT SOBAT2R
Aircraft B77W/H-SDE1E2E3FGHIJ2J3J4J5M1RWXY/LB1D1

Departure

Time 2026-05-04 12:53
Airport Sir Seewoosagur Ramgoolam International Airport (FIMP)

Arrival

Time 2026-05-04 13:10
Airport Roland Garros Airport (FMEE)
Time Latitude Longitude Altitude Speed Heading
2026-05-04 12:32 -20.43261 57.67956 191 ft 0 kts 237°
2026-05-04 12:44 -20.43252 57.67970 209 ft 4 kts 237°
2026-05-04 12:44 -20.43238 57.67994 206 ft 4 kts 237°
2026-05-04 12:44 -20.43224 57.68016 206 ft 4 kts 240°
2026-05-04 12:45 -20.43215 57.68041 206 ft 4 kts 277°
2026-05-04 12:45 -20.43226 57.68062 206 ft 4 kts 334°
2026-05-04 12:45 -20.43252 57.68071 206 ft 4 kts 345°
2026-05-04 12:45 -20.43268 57.68077 206 ft 0 kts 335°
2026-05-04 12:48 -20.43265 57.68075 206 ft 2 kts 334°
2026-05-04 12:48 -20.43240 57.68061 206 ft 6 kts 331°
2026-05-04 12:48 -20.43191 57.68028 202 ft 9 kts 322°
2026-05-04 12:48 -20.43143 57.67982 206 ft 9 kts 314°
2026-05-04 12:49 -20.43102 57.67927 202 ft 10 kts 305°
2026-05-04 12:49 -20.43064 57.67854 196 ft 12 kts 297°
2026-05-04 12:49 -20.43025 57.67775 204 ft 12 kts 296°
2026-05-04 12:49 -20.42986 57.67692 204 ft 13 kts 298°
2026-05-04 12:50 -20.42918 57.67630 198 ft 13 kts 330°
2026-05-04 12:50 -20.42840 57.67580 201 ft 13 kts 324°
2026-05-04 12:50 -20.42768 57.67520 204 ft 13 kts 322°
2026-05-04 12:50 -20.42690 57.67474 198 ft 13 kts 341°
2026-05-04 12:51 -20.42614 57.67459 206 ft 4 kts 21°
2026-05-04 12:51 -20.42599 57.67483 204 ft 4 kts 76°
2026-05-04 12:51 -20.42607 57.67509 211 ft 4 kts 123°
2026-05-04 12:51 -20.42628 57.67536 204 ft 6 kts 125°
2026-05-04 12:52 -20.42643 57.67564 205 ft 0 kts 117°
2026-05-04 12:52 -20.42647 57.67572 207 ft 6 kts 117°
2026-05-04 12:53 -20.42799 57.67886 203 ft 103 kts 117°
2026-05-04 12:53 -20.43300 57.68929 240 ft 206 kts 117°
2026-05-04 12:53 -20.44025 57.70420 1162 ft 237 kts 118°
2026-05-04 12:53 -20.44762 57.71897 2497 ft 223 kts 118°
2026-05-04 12:54 -20.45550 57.73387 3063 ft 236 kts 130°
2026-05-04 12:54 -20.46949 57.74293 3552 ft 246 kts 171°
2026-05-04 12:54 -20.49058 57.73941 4627 ft 256 kts 201°
2026-05-04 12:54 -20.52381 57.72336 6452 ft 267 kts 206°
2026-05-04 12:55 -20.54443 57.69037 8102 ft 287 kts 265°
2026-05-04 12:55 -20.52615 57.62678 10946 ft 296 kts 290°
2026-05-04 12:55 -20.49407 57.53986 13692 ft 338 kts 289°
2026-05-04 12:55 -20.46573 57.43824 15734 ft 379 kts 260°
2026-05-04 12:56 -20.50797 57.24912 19956 ft 411 kts 255°
2026-05-04 12:56 -20.56199 56.99776 22040 ft 443 kts 255°
2026-05-04 12:56 -20.61539 56.74869 21911 ft 416 kts 255°
2026-05-04 12:56 -20.66508 56.51535 21908 ft 396 kts 255°
2026-05-04 12:57 -20.67658 56.46112 21961 ft 388 kts 255°
2026-05-04 12:57 -20.68245 56.43338 21993 ft 378 kts 255°
2026-05-04 12:57 -20.68818 56.40624 21949 ft 373 kts 255°
2026-05-04 12:57 -20.69387 56.37936 21641 ft 369 kts 255°
2026-05-04 12:58 -20.69950 56.35273 21222 ft 367 kts 255°
2026-05-04 12:58 -20.70512 56.32615 20737 ft 367 kts 255°
2026-05-04 12:58 -20.71071 56.29964 20286 ft 366 kts 255°
2026-05-04 12:58 -20.71627 56.27319 19877 ft 364 kts 256°
2026-05-04 12:59 -20.71895 56.22672 19190 ft 363 kts 269°
2026-05-04 12:59 -20.71682 56.17304 18427 ft 359 kts 269°
2026-05-04 12:59 -20.71492 56.12007 17592 ft 355 kts 269°
2026-05-04 12:59 -20.71346 56.06752 16743 ft 352 kts 269°
2026-05-04 13:00 -20.71218 56.01621 15936 ft 349 kts 268°
2026-05-04 13:00 -20.71092 55.96449 15126 ft 347 kts 268°
2026-05-04 13:00 -20.70967 55.91317 14353 ft 344 kts 268°
2026-05-04 13:00 -20.70841 55.86227 13552 ft 342 kts 268°
2026-05-04 13:01 -20.70714 55.81171 12801 ft 337 kts 269°
2026-05-04 13:01 -20.70588 55.76206 11993 ft 334 kts 269°
2026-05-04 13:01 -20.70462 55.71262 11233 ft 332 kts 269°
2026-05-04 13:01 -20.70335 55.66332 10479 ft 330 kts 269°
2026-05-04 13:02 -20.70186 55.61462 9765 ft 328 kts 269°
2026-05-04 13:02 -20.69999 55.56636 9212 ft 316 kts 269°
2026-05-04 13:02 -20.69827 55.52197 8672 ft 286 kts 270°
2026-05-04 13:02 -20.69672 55.48069 7777 ft 270 kts 270°
2026-05-04 13:03 -20.69525 55.44178 6604 ft 263 kts 270°
2026-05-04 13:03 -20.69378 55.40311 5373 ft 258 kts 270°
2026-05-04 13:03 -20.69230 55.36449 4682 ft 255 kts 270°
2026-05-04 13:03 -20.69087 55.32803 4467 ft 235 kts 270°
2026-05-04 13:04 -20.69732 55.29712 3831 ft 203 kts 221°
2026-05-04 13:04 -20.72059 55.28601 3235 ft 173 kts 186°
2026-05-04 13:04 -20.74386 55.28322 2975 ft 166 kts 184°
2026-05-04 13:04 -20.76507 55.28088 2996 ft 167 kts 178°
2026-05-04 13:05 -20.77559 55.28523 3007 ft 168 kts 135°
2026-05-04 13:05 -20.78553 55.30215 3036 ft 171 kts 120°
2026-05-04 13:05 -20.79700 55.32443 2975 ft 166 kts 120°
2026-05-04 13:05 -20.80692 55.34392 2966 ft 139 kts 120°
2026-05-04 13:06 -20.81506 55.36019 3006 ft 150 kts 120°
2026-05-04 13:06 -20.82026 55.37001 2762 ft 149 kts 120°
2026-05-04 13:06 -20.82512 55.37971 2568 ft 146 kts 118°
2026-05-04 13:06 -20.82969 55.38925 2383 ft 142 kts 118°
2026-05-04 13:07 -20.83421 55.39867 2216 ft 145 kts 117°
2026-05-04 13:07 -20.83880 55.40842 2009 ft 146 kts 117°
2026-05-04 13:07 -20.84332 55.41796 1809 ft 142 kts 117°
2026-05-04 13:07 -20.84782 55.42741 1648 ft 144 kts 116°
2026-05-04 13:08 -20.85234 55.43701 1457 ft 144 kts 117°
2026-05-04 13:08 -20.85684 55.44657 1257 ft 143 kts 117°
2026-05-04 13:08 -20.86132 55.45592 1015 ft 139 kts 116°
2026-05-04 13:08 -20.86582 55.46527 816 ft 141 kts 116°
2026-05-04 13:09 -20.87031 55.47461 730 ft 142 kts 116°
2026-05-04 13:09 -20.87483 55.48407 534 ft 142 kts 114°
2026-05-04 13:09 -20.87923 55.49347 350 ft 141 kts 113°
2026-05-04 13:09 -20.88345 55.50268 111 ft 138 kts 114°
2026-05-04 13:10 -20.88762 55.51150 52 ft 121 kts 114°
2026-05-04 13:10 -20.89062 55.51785 68 ft 69 kts 116°
2026-05-04 13:10 -20.89194 55.52069 68 ft 21 kts 117°
2026-05-04 13:10 -20.89255 55.52196 66 ft 8 kts 123°
2026-05-04 13:11 -20.89307 55.52217 69 ft 9 kts 185°
2026-05-04 13:11 -20.89365 55.52194 65 ft 9 kts 207°
2026-05-04 13:11 -20.89409 55.52156 62 ft 8 kts 244°
2026-05-04 13:11 -20.89398 55.52100 61 ft 9 kts 298°
2026-05-04 13:12 -20.89367 55.52040 64 ft 9 kts 297°
2026-05-04 13:12 -20.89336 55.51974 63 ft 11 kts 297°
2026-05-04 13:12 -20.89295 55.51889 72 ft 15 kts 296°
2026-05-04 13:12 -20.89231 55.51753 64 ft 22 kts 296°
2026-05-04 13:13 -20.89162 55.51604 62 ft 22 kts 296°
2026-05-04 13:13 -20.89098 55.51468 65 ft 15 kts 296°
2026-05-04 13:13 -20.89059 55.51382 58 ft 14 kts 296°
2026-05-04 13:13 -20.89018 55.51294 59 ft 9 kts 291°
2026-05-04 13:14 -20.89043 55.51247 58 ft 5 kts 211°
2026-05-04 13:14 -20.89064 55.51239 59 ft 1 kts 205°
2026-05-04 13:14 -20.89070 55.51236 57 ft 0 kts 205°
2026-05-04 13:14 -20.89071 55.51236 57 ft 0 kts 205°